This is the latest recevied weather packets stored in our database for station/object N2RDT. If no packets are shown the sender has not sent any weather packets the latest 10 day(s).
| Time | Temp. | Humidity | Pressure | Rain* | Wind** | Luminosity | Snow |
|---|---|---|---|---|---|---|---|
| 1777662992 | 18.33° C | 47% | 1014.4 hPa | 0 mm | - | 724 W/m² | - |
| 1777662689 | 17.78° C | 45% | 1014.4 hPa | 0 mm | - | 857 W/m² | - |
| 1777662386 | 17.78° C | 50% | 1014.5 hPa | 0 mm | - | 875 W/m² | - |
| 1777662081 | 17.78° C | 48% | 1014.7 hPa | 0 mm | - | 411 W/m² | - |
| 1777661777 | 18.33° C | 46% | 1014.7 hPa | 0 mm | - | 968 W/m² | - |
| 1777661473 | 17.78° C | 50% | 1015.1 hPa | 0 mm | - | 738 W/m² | - |
| 1777661169 | 18.33° C | 46% | 1015 hPa | 0 mm | - | 772 W/m² | - |
| 1777660864 | 17.78° C | 47% | 1015 hPa | 0 mm | - | 1131 W/m² | - |
| 1777660561 | 17.22° C | 46% | 1015.1 hPa | 0 mm | - | 490 W/m² | - |
| 1777660257 | 17.22° C | 47% | 1015 hPa | 0 mm | - | 348 W/m² | - |
| 1777659954 | 16.67° C | 47% | 1015.1 hPa | 0 mm | - | 421 W/m² | - |
| 1777659651 | 18.33° C | 49% | 1015 hPa | 0 mm | - | 1004 W/m² | - |
| 1777659348 | 18.33° C | 49% | 1014.9 hPa | 0 mm | - | 1004 W/m² | - |
| 1777659045 | 18.33° C | 49% | 1015 hPa | 0 mm | - | 1004 W/m² | - |
| 1777658743 | 18.33° C | 49% | 1015 hPa | 0 mm | - | 1004 W/m² | - |
| 1777658438 | 18.33° C | 49% | 1015.1 hPa | 0 mm | - | 1004 W/m² | - |
| 1777658135 | 17.78° C | 50% | 1015.2 hPa | 0 mm | - | 946 W/m² | - |
| 1777657832 | 17.78° C | 47% | 1015.4 hPa | 0 mm | - | 598 W/m² | - |
| 1777657529 | 17.78° C | 46% | 1015.3 hPa | 0 mm | - | 1053 W/m² | - |
| 1777657227 | 17.78° C | 46% | 1015.2 hPa | 0 mm | - | 1053 W/m² | - |
| 1777656924 | 17.78° C | 46% | 1015.1 hPa | 0 mm | - | 1053 W/m² | - |
| 1777656621 | 17.78° C | 45% | 1015.1 hPa | 0 mm | - | 970 W/m² | - |
| 1777656316 | 18.33° C | 46% | 1015.2 hPa | 0 mm | - | 748 W/m² | - |
| 1777656012 | 17.78° C | 46% | 1015.3 hPa | 0 mm | - | 971 W/m² | - |
| 1777655708 | 17.22° C | 47% | 1015.5 hPa | 0 mm | - | 998 W/m² | - |
* Rain latest hour (hover to see other rain measurements)
** Current wind speed in m/s (hover to see current wind gust speed)